Regional Weather Roundup
Issued by NWS Charleston, SC

Current Version | Previous Version | Graphics & Text | Print | Product List | Glossary On
Versions: 1 2 3 4 5 6 7 8 9 10 11 12 13 14 15 16 17 18 19 20 21 22 23 24 25 26 27 28 29 30 31 32 33 34 35 36 37 38 39 40 41 42 43 44 45 46 47 48 49 50
000
ASUS42 KCHS 271212
RWRCHS

REGIONAL WEATHER ROUNDUP
NATIONAL WEATHER SERVICE CHARLESTON SC
800 AM EDT WED MAY 27 2015

NOTE: "FAIR" INDICATES FEW OR NO CLOUDS BELOW 12,000 FEET WITH NO
SIGNIFICANT WEATHER AND/OR OBSTRUCTIONS TO VISIBILITY.

NOT ALL STATIONS ARE QUALITY CONTROLLED BY THE NATIONAL
WEATHER SERVICE. USE DATA WITH CAUTION...ESPECIALLY
DEWPOINT OBSERVATIONS.

SCZ027-030-031-034>040-042>050-271300-
...SOUTHEAST SOUTH CAROLINA...

CITY           SKY/WX    TMP DP  RH WIND       PRES   REMARKS
N CHARLESTON   PTSUNNY   76  71  85 SW5       30.25R
6HR MIN TEMP:  71; 6HR MAX TEMP:  76;

WATERFRONT PAR   N/A     77  71  82 S5        30.21R
MOUNT PLEASANT LGT RAIN  79  70  73 S6        30.25R
JOHNS ISLAND   CLOUDY    79  70  73 CALM      30.25R
PINOPOLIS        N/A     79  72  78 CALM      30.17
MONCKS CORNER  FAIR      73  70  88 CALM      30.26R FOG
SUMMERVILLE    FAIR      72  72 100 CALM      30.26R
BEAUFORT MCAS  PTSUNNY   78  70  76 CALM      30.24R
6HR MIN TEMP:  75; 6HR MAX TEMP:  78;

BEAUFORT ARPT  FAIR      77  72  83 CALM      30.23R
HILTON HEAD IS MOSUNNY   79  70  73 S6        30.25R
WALTERBORO     SUNNY     72  70  94 CALM      30.26R
ALLENDALE      CLOUDY    70  68  94 CALM      30.25R

...SOUTHERN MIDLANDS AND PEE DEE...

CITY           SKY/WX    TMP DP  RH WIND       PRES   REMARKS
GEORGETOWN     NOT AVBL
KINGSTREE      NOT AVBL
ORANGEBURG     CLOUDY    71  68  90 E3        30.26R
6HR MIN TEMP:  68; 6HR MAX TEMP:  71;

BARNWELL       CLOUDY    72  70  94 CALM      30.26R
AIKEN          PTSUNNY   54  52  94 CALM      30.30R
MANNING        NOT AVBL
COLUMBIA       PTSUNNY   71  65  81 W3        30.26R
6HR MIN TEMP:  67; 6HR MAX TEMP:  71;

SUMTER         PTSUNNY   71  68  89 E3        30.25R
6HR MIN TEMP:  67; 6HR MAX TEMP:  71; 6HR PCP: TRACE;

FLORENCE       PTSUNNY   74  72  93 S5        30.25R
6HR MIN TEMP:  71; 6HR MAX TEMP:  74;

MYRTLE BEACH   MOSUNNY   77  70  78 S12       30.27R
N MYRTLE BEACH NOT AVBL

$$

GAZ063-065-086>088-099>101-113>116-118-119-134>141-150-271300-
...SOUTHEAST GEORGIA...

CITY           SKY/WX    TMP DP  RH WIND       PRES   REMARKS
SAVANNAH ARPT  PTSUNNY   75  70  84 CALM      30.23R
6HR MIN TEMP:  71; 6HR MAX TEMP:  75;

HUNTER AAF     SUNNY     76  73  92 E1        30.21R
6HR MIN TEMP:  71; 6HR MAX TEMP:  76;

FORT STEWART   NOT AVBL
STATESBORO     SUNNY     70  50  49 N5        30.25R
SYLVANIA       CLOUDY    71  71 100 N3        30.26R FOG
CLAXTON        FAIR      68  68 100 CALM      30.24R

...CSRA...CENTRAL AND FAR SOUTHEAST GEORGIA...

CITY           SKY/WX    TMP DP  RH WIND       PRES   REMARKS
THOMSON        CLOUDY    70  70 100 CALM      30.30R
AUGUSTA-BUSH   CLOUDY    70  68  93 CALM      30.25R
6HR MIN TEMP:  66; 6HR MAX TEMP:  70;

AUGUSTA-DANIEL CLOUDY    71  67  87 N3        30.26R
SWAINSBORO     CLOUDY   N/A N/A N/A N3        30.26R
VIDALIA        CLOUDY    68  68 100 CALM      30.24R FOG
EASTMAN        CLOUDY    70  70 100 CALM      30.27R
HAZLEHURST     CLOUDY    69  69 100 CALM      30.23R FOG
ALMA           MOSUNNY   71  69  93 CALM      30.22R
6HR MIN TEMP:  67; 6HR MAX TEMP:  71;

WAYCROSS       SUNNY     72  71  99 CALM        N/A
JESUP          FAIR      73  72  94 CALM      30.23R
BAXLEY         FAIR      72  70  94 CALM      30.23R
BRUNSWICK      SUNNY     79  68  69 SE6       30.22R
SAINT SIMONS   NOT AVBL

$$

SCZ027-028-034-036>038-045-046-048>050-GAZ119-141-271300-
...LAKE AND SUPPLEMENTAL COASTAL OBSERVATIONS...

STATION/POSITION TIME  TEMP    WIND        PRES    WAVE   SWELL
                       AIR SEA DIR/SP/G            HT/PER HT/PER/DIR
                 (UTC) (F)     (DEG/KT/KT) (MB)    (FT/S) (FT/S/D)
UPR LAKE MARION  NOT AVBL
WINYAH BAY       NOT AVBL
LAKE MURRAY      1100   69      CALM  /  4 1023.7R
ACE BASIN NERRS  NOT AVBL
FORT PULASKI     1100   75 78  150/  2/  5 1023.5R
SAPELO ISLAND    1100   75     130/  5     1022.0S

$$

ANZ835-935-AMZ111-154-330-350-352-354-370-450-454-472-271300-
...C-MAN AND BUOY OBSERVATIONS...

STATION/POSITION TIME  TEMP    WIND        PRES    WAVE   SWELL
                       AIR SEA DIR/SP/G            HT/PER HT/PER/DIR
                 (UTC) (F)     (DEG/KT/KT) (MB)    (FT/S) (FT/S/D)
BUOY 41004       1150   78 77  150/  8/ 10 1023.5R   3/ 7   3/ 7
BUOY 41008       1150   77 77  140/ 12/ 14 1023.3R   3/ 7   2/110/ 7
FOLLY BEACH CMAN 1200   77     170/  7/  8 1024.4R
CAPERS NEARSHORE 1108   76     180/  6/  8 1023.8R
FRIPP NEARSHORE  1100   77     160/  8/ 10 1022.8R


STATION/POSITION TIME  TEMP    WIND        PRES    WAVE   SWELL
                       AIR SEA DIR/SP/G            HT/PER HT/PER/DIR
                 (UTC) (F)     (DEG/KT/KT) (MB)    (FT/S) (FT/S/D)
5E ST. MARYS GA  1121      79                N/A     3/ 5
FRYING PAN BUOY  1150   77 74  160/  8/ 10 1024.9R   3/ 7   3/130/ 7
BUOY 41025       1150   75 76  170/ 10/ 14 1025.8R   3/ 5   2/130/ 7
CAPE LOOKOUT NC  1100   73     200/  4/  5 1024.7R
BUOY 41002       1150   73 74   90/  8/ 10 1026.0R   4/ 6   3/100/ 6
BUOY 41010       1120   77 81  100/ 14/ 17 1022.0R
ST AUGUSTINE FL  1200   77 78  130/  9/ 10 1023.4R


$$


USA.gov is the U.S. government's official web portal to all federal, state and local government web resources and services.